Regional Weather Roundup
Issued by NWS

Home | Current Version | Previous Version | Text Only | Print | Product List | Glossary On
Versions: 1 2 3 4 5 6 7 8 9 10 11 12 13 14 15 16 17 18 19 20 21 22 23 24 25 26 27 28 29 30 31 32 33 34 35 36 37 38 39 40 41 42 43 44 45 46 47 48 49 50
000
ASHW40 PHFO 280212
RWRHI

WEATHER ROUNDUP FOR HAWAII
NATIONAL WEATHER SERVICE HONOLULU HI
400 PM HST SAT AUG 27 2016

THIS IS AN AUTOMATED REPORT THAT HAS NOT BEEN QUALITY CONTROLLED.

NOTE..."FAIR" INDICATES FEW OR NO CLOUDS BELOW 12,000 FEET WITH NO
SIGNIFICANT WEATHER AND/OR OBSTRUCTIONS TO VISIBILITY.

* - THESE SITES REPORT LIMITED FIELDS

HIZ001>004-280300-
KAUAI-NIIHAU-

CITY           SKY/WX    TMP DP  RH WIND       PRES   REMARKS
LIHUE APT      PTSUNNY   83  70  64 NE14      29.95F
PORT ALLEN*      N/A     84 N/A N/A NE15G29     N/A
POIPU*           N/A     84 N/A N/A E9G18       N/A
PRINCEVILLE*     N/A     79 N/A N/A NE6         N/A
KOKOLE POINT*  NOT AVBL
MOLOAA DAIRY*    N/A     86  70  58 NE3G12      N/A  HX  90
WAIMEA HTS*    NOT AVBL
PUU OPAE*      NOT AVBL
PUU LUA*       NOT AVBL
MAKAHA RIDGE*  NOT AVBL
$$

HIZ005>011-280300-
OAHU-

CITY           SKY/WX    TMP DP  RH WIND       PRES   REMARKS
HONOLULU       PTSUNNY   83  66  56 NE15      29.90F
KALAELOA       CLOUDY    82  68  62 S3        29.92F
KANEOHE MCB    CLOUDY    81  71  71 E10       29.90S
WHEELER FIELD  FAIR      80  69  68 NE15G21   29.94S
BELLOWS*       NOT AVBL
KAHUKU*        NOT AVBL
WHEELER*       NOT AVBL
WAIANAE HARBOR NOT AVBL
DILLINGHAM*      N/A     90  73  58 MISG        N/A  HX  98
KAHUKU TRN*      N/A     82  77  83 N6G21       N/A  HX  91
KAWAILOA*        N/A     72  66  83 NE10G20     N/A
KII*             N/A     79  68  69 E13G26      N/A
MAKUA RANGE*     N/A     84  68  58 W15G22      N/A
OAHU FOREST NW NOT AVBL
SCHOFIELD BRK*   N/A     81  70  69 MISG        N/A
SCHOFIELD S*   NOT AVBL
WAIANAE VLY*   NOT AVBL
KUAOKALA*      NOT AVBL
HONOULIUULI*   NOT AVBL
MOKUOLOE IS*   NOT AVBL
PALEHUA*       NOT AVBL
WAIAWA PHB*    NOT AVBL
$$

HIZ012>013-280300-
MOLOKAI-

CITY           SKY/WX    TMP DP  RH WIND       PRES   REMARKS
MOLOKAI AIRPT  MOSUNNY   79  69  71 N14G21    29.92F
KALAUPAPA      NOT AVBL
MAKAPULAPAI*   NOT AVBL
MOLOKAI 1*     NOT AVBL
PUU ALII*      NOT AVBL
$$

HIZ016-280300-
KAHOOLAWE-

CITY           SKY/WX    TMP DP  RH WIND       PRES   REMARKS
KAHOOLAWE*     NOT AVBL
HAKIOAWA*      NOT AVBL
HONOKANAIA*      N/A     84  70  62 E8        29.84F
KANELOA*         N/A     77  72  83 E12G24    29.98F
KEALIALALO*    NOT AVBL
LUA MAKIKA*    NOT AVBL
$$

HIZ014>015-280300-
LANAI-

CITY           SKY/WX    TMP DP  RH WIND       PRES   REMARKS
LANAI CITY     FAIR      78  69  73 NE21G29   29.95F
LANAI 1*       NOT AVBL
$$

HIZ017>028-280300-
MAUI-

CITY           SKY/WX    TMP DP  RH WIND       PRES   REMARKS
KAHULUI        PTSUNNY   82  70  66 NE18      29.90F
KAPALUA-W MAUI PTSUNNY   81  72  74 N16G29    29.91
HANA AIRPORT   LGT RAIN  75  73  94 S6        29.94F
HANA*            N/A     75 N/A N/A S2          N/A
HALEAKALA SUMM   N/A     52  50  93 NE9         N/A
MAALAEA BAY*   NOT AVBL
HALEAKALA*     NOT AVBL
KAUPO GAP*     NOT AVBL
KULA 1*          N/A     61  61  99 W5          N/A
$$

HIZ023>026-280300-
BIG ISLAND OF HAWAII COAST AND LOWER SLOPES-

CITY           SKY/WX    TMP DP  RH WIND       PRES   REMARKS
KAILUA KONA    MOSUNNY   86  71  60 S10       29.85F HX  91
HILO           CLOUDY    83  69  62 N12       29.90S
HONOKAA*         N/A     75 N/A N/A VRB1        N/A
KAWAIHAE MWT*    N/A     88 N/A N/A SW13        N/A
KAWAIHAE*      NOT AVBL
SOUTH POINT*     N/A     79 N/A N/A N13G18      N/A
UPOLU AIRPORT* NOT AVBL
KAMUELA*       CLOUDY    79  64  61 NE12      30.00S
HAKALAU*         N/A     58  57  96 N5G10       N/A
KALOKO-HONOKO* NOT AVBL
PALI 2*          N/A     70  66  88 VRB5G10     N/A
KEALAKOMO*       N/A     82  68  61 NE16G26     N/A
KAUPULEHU*     NOT AVBL
KAPAPALA*        N/A     74  70  88 SW5G12      N/A
LOWER KAHUKU*  NOT AVBL
PUHE CS*       NOT AVBL
PUHO CS*       NOT AVBL
PTA KEAMUKU*     N/A     73  63  68 CALM        N/A
WAIKOLOA*      NOT AVBL
$$

HIZ027>028-280300-
BIG ISLAND OF HAWAII INTERIOR AND SUMMMITS-

CITY           SKY/WX    TMP DP  RH WIND       PRES   REMARKS
BRADSHAW FIELD CLOUDY    68  58  69 W13G20    30.22S
MK VISITOR CEN   N/A     52  48  87 S3          N/A
MAUNA KEA*       N/A     46  23  39 N5          N/A
MAUNA LOA*       N/A    N/A N/A N/A MISG        N/A
MAUNA LOA 1*   NOT AVBL
PTA KIPUKA*      N/A     68  57  68 N7G16       N/A
PTA RANGE 17*  NOT AVBL
PTA WEST*        N/A     75  68  78 NW9G18      N/A
NENE CABIN*    NOT AVBL
AHUMOA*        NOT AVBL
PTA PORTABLE*  NOT AVBL
PUU MALI*        N/A     57  57 100 E12         N/A
$$

HIC003-280300-
NORTHWEST ISLANDS-

CITY           SKY/WX    TMP DP  RH WIND       PRES   REMARKS
MIDWAY ISLAND  PTSUNNY   81  75  83 NE13      29.99F
MIDWAY NOS*    NOT AVBL
FRENCH FRIGATE NOT AVBL
$$

PHZ110>124-180-280300-
BUOY REPORTS

STATION/POSITION TIME  TEMP    WIND        PRES    WAVE   SWELL
                       AIR SEA DIR/SP/G            HT/PER HT/DIR
                 (UTC) (F)     (DEG/KT/KT) (MB)    (FT/S) (FT/D)
BUOY 51001       NOT AVBL
BUOY 51101       0150   80 82   70/ 14/ 17 1015.5F   5/ 7   3/ 90
BUOY 51100       NOT AVBL
BUOY 51002       NOT AVBL
BUOY 51003       0150   80 83   60/ 10/ 14 1011.9F   5/ 7   5/ 70
BUOY 51004       0150   79 82   30/ 12/ 16 1010.8F   6/ 8   5/ 80
BARBERS PT BUOY  NOT AVBL
WAIMEA BAY BUOY  0104      81                N/A     4/ 6
KAILUA BAY BUOY  0141      81                N/A     5/ 7   2/160
LANAI BUOY       0115      82                N/A     2/13   2/190
BARBERS PT 2     NOT AVBL
PAUWELA MAUI     0109      81                N/A     5/ 7
HILO             0112      82                N/A     5/13   2/130
KANEOHE BAY BUOY 0106      80                N/A     5/ 5
HANALEI KAUAI    NOT AVBL
KAHULUI HARBOR   0100   77 82              1013.0F
HONOLULU HARBOR  0100   81 82              1013.6F
KILO NALU        NOT AVBL
HILO HARBOR      0100   81 81              1012.0F
MOKUOLOE         0100   81 83   90/  9/ 13 1013.5F
NAWILIWILI       0100   80 82              1014.1F
WHOTS BUOY       NOT AVBL
BUOY 51028       NOT AVBL
$$

......................KEY........................................
  SKY/WX - SKY CONDITIONS/PRESENT WEATHER
  TMP    - TEMPERATURE IN FAHRENHEIT
  DWPT   - DEWPOINT IN FAHRENHEIT
  RH     - RELATIVE HUMIDITY IN PERCENT
  WIND   - DIRECTION AND SPEED /MPH FOR ISLANDS...KTS FOR BUOYS/
  PRES   - MEAN SEA LEVEL PRESSURE IN INCHES OF HG
  VSB    - VISIBILITY IN MILES
  HX     - HEAT INDEX
  WCI    - WIND CHILL INDEX
  VRB    - VARIABLE WIND DIRECTION
  N/A    - NOT AVAILABLE




USA.gov is the U.S. government's official web portal to all federal, state and local government web resources and services.